Погода в Новом Сулаке

Россия / Республика Дагестан     43°12′42″N   46°48′58″E
темп.,
°C
ветер,
м/с
пор.,
м/с
влажн.,
%
обл.,
%
осадки,
мм/ч
давл.,
гПа
погр.,
м
21 апреля, ср
ср2100:00+14зсз4975100 0.0 1010249
03:00+17з91579100 0.0 1011587
06:00+16зсз71283100 0.0 1013628
09:00+16зсз91169100 0.0 1017926
12:00+16зсз81065100 0.0 1017879
15:00+15зсз71072100 0.8 1019916
18:00+12з5985100 3.2 1021368
21:00+12з4880100 3.2 1022286
22 апреля, чт
чт2200:00+12з3685100 0.1 1021223
03:00+12зсз3586100 0.1 1021222
06:00+12з358399 0.0 1021254
09:00+13зсз4676100 0.0 1022454
12:00+15зсз566696 0.0 1022970
15:00+14зсз3469100 0.0 1022663
18:00+13з3475100 0.0 1022139
21:00+12сз1276100 0.0 102248
23 апреля, пт
пт2300:00+12зсз2281100 0.0 102068
03:00+11зсз3582100 0.0 1020245
06:00+11зсз5892100 0.6 1022470
09:00+11зсз5891100 1.1 1023521
12:00+12зсз61083100 0.5 1023739
15:00+16зсз710637 0.5 10221199
18:00+15сз24704 0.0 102284
21:00+11ююз21820 0.0 102210
24 апреля, сб
сб2400:00+10юв22835 0.0 102012
03:00+10вюв2283100 0.0 101818
06:00+11ссв0179100 0.0 101821
09:00+15ссз1165100 0.0 1018502
12:00+19в324921 0.0 10181356
15:00+19в6548100 0.0 1017970
18:00+15всв476252 0.0 1019229
21:00+12вюв237315 0.0 101945
25 апреля, вс
вс2500:00+11в117815 0.0 101814
03:00+10зюз11845 0.0 101810
06:00+11юз018138 0.0 101938
09:00+17ссв216121 0.0 1018615
12:00+20св225063 0.0 10161254
15:00+21всв5340100 0.0 10141252
18:00+17в225572 0.0 101438
21:00+14св0161100 0.0 101411